This is the latest recevied weather packets stored in our database for station/object 4S6DRJ-13. If no packets are shown the sender has not sent any weather packets the latest 10 day(s).
| Time | Temp. | Humidity | Pressure | Rain* | Wind** | Luminosity | Snow |
|---|---|---|---|---|---|---|---|
| 1787861523 | 27.22° C | 89% | 1009.4 hPa | 0 mm | 0.89 m/s, 238° | 0 W/m² | - |
| 1787861462 | 27.22° C | 89% | 1009.5 hPa | 0 mm | 0.89 m/s, 88° | 0 W/m² | - |
| 1787861400 | 27.22° C | 89% | 1009.4 hPa | 0 mm | 0.89 m/s, 217° | 0 W/m² | - |
| 1787861340 | 27.22° C | 89% | 1009.4 hPa | 0 mm | 2.24 m/s, 218° | 0 W/m² | - |
| 1787861278 | 27.22° C | 89% | 1009.3 hPa | 0 mm | 0.45 m/s, 213° | 0 W/m² | - |
| 1787861217 | 27.22° C | 89% | 1009.5 hPa | 0 mm | 0.45 m/s, 243° | 0 W/m² | - |
| 1787861156 | 27.22° C | 89% | 1009.4 hPa | 0 mm | 0.89 m/s, 146° | 0 W/m² | - |
| 1787861095 | 27.22° C | 89% | 1009.4 hPa | 0 mm | 1.34 m/s, 263° | 0 W/m² | - |
| 1787861034 | 27.22° C | 89% | 1009.5 hPa | 0 mm | 0.45 m/s, 286° | 0 W/m² | - |
| 1787860973 | 27.22° C | 89% | 1009.5 hPa | 0 mm | 0 m/s | 0 W/m² | - |
| 1787860912 | 27.22° C | 89% | 1009.4 hPa | 0 mm | 1.34 m/s, 240° | 0 W/m² | - |
| 1787860851 | 27.22° C | 89% | 1009.4 hPa | 0 mm | 0 m/s | 0 W/m² | - |
| 1787860790 | 27.22° C | 89% | 1009.7 hPa | 0 mm | 0.89 m/s, 232° | 0 W/m² | - |
| 1787860729 | 27.22° C | 89% | 1009.5 hPa | 0 mm | 0.45 m/s, 148° | 0 W/m² | - |
| 1787860669 | 27.22° C | 89% | 1009.5 hPa | 0 mm | 1.79 m/s, 233° | 0 W/m² | - |
| 1787860607 | 27.22° C | 89% | 1009.7 hPa | 0 mm | 0.45 m/s, 180° | 0 W/m² | - |
| 1787860546 | 27.22° C | 89% | 1009.8 hPa | 0 mm | 0 m/s | 0 W/m² | - |
| 1787860485 | 27.22° C | 89% | 1009.7 hPa | 0 mm | 0.89 m/s, 225° | 0 W/m² | - |
| 1787860425 | 27.22° C | 89% | 1009.6 hPa | 0 mm | 0.89 m/s, 220° | 0 W/m² | - |
| 1787860363 | 27.22° C | 89% | 1009.6 hPa | 0 mm | 0.45 m/s, 213° | 0 W/m² | - |
| 1787860302 | 27.22° C | 89% | 1009.6 hPa | 0 mm | 0.89 m/s, 213° | 0 W/m² | - |
| 1787860241 | 27.22° C | 89% | 1009.5 hPa | 0 mm | 0.45 m/s, 183° | 0 W/m² | - |
| 1787860181 | 27.22° C | 89% | 1009.7 hPa | 0 mm | 0.89 m/s, 226° | 0 W/m² | - |
| 1787860120 | 27.22° C | 89% | 1009.7 hPa | 0 mm | 0 m/s | 0 W/m² | - |
| 1787860059 | 27.22° C | 89% | 1009.7 hPa | 0 mm | 0.45 m/s, 140° | 0 W/m² | - |
* Rain latest hour (hover to see other rain measurements)
** Current wind speed in m/s (hover to see current wind gust speed)